Home   Weather   Raleigh   Past weeks

Flag for USA Past Weather in Raleigh, North Carolina, USA — Yesterday and Last 2 Weeks

Now
75 °F

Passing clouds.


Feels Like: 76 °F
Forecast: 66 / 85 °F
Wind: 13 mph from Southwest

Location: Raleigh-Durham International Airport

Current Time: Apr 28, 2017 at 10:14:40 am

Latest Report: Apr 28, 2017 at 8:51 am


Visibility: 10 mi

Pressure: 30.03 "Hg

Humidity: 79%

Dew Point: 68 °F

Location of RaleighLocation

Past Weather in Raleigh — Graph

°F

Raleigh Temperature Yesterday

Maximum temperature yesterday: 82 °F (at 3:51 pm)
Minimum temperature yesterday: 63 °F (at 5:51 am)
Average temperature yesterday: 72 °F

High & Low Weather Summary for the Past Weeks

 TemperatureHumidityPressure
High87 °F (Apr 21, 3:51 pm)100% (Apr 22, 5:51 am)30.37 "Hg (Apr 22, 5:51 am)
Low53 °F (Apr 23, 9:51 am)32% (Apr 13, 1:51 pm)29.59 "Hg (Apr 25, 4:58 am)
Average66 °F72%30.04 "Hg
* Reported Apr 13 8:51 am — Apr 28 8:51 am, Raleigh, Weather by CustomWeather, © 2017

Note: Actual official high and low records may vary slightly from our data, if they occured in-between our weather recording intervals... More about our weather records

Advertising

Raleigh Weather History for the Previous 24 Hours

Scroll right to see more
 ConditionsComfort  
Time TempWeatherWind HumidityBarometerVisibility
8:51 am
Fri, Apr 28
75 °FPassing clouds.13 mph79%30.03 "Hg10 mi
7:51 am71 °FPassing clouds.8 mph90%30.02 "Hg9 mi
6:51 am69 °FPassing clouds.No wind93%30.00 "Hg7 mi
5:51 am70 °FPassing clouds.6 mph90%29.97 "Hg8 mi
4:51 am71 °FPassing clouds.7 mph84%29.95 "Hg10 mi
3:51 am72 °FLight rain. Passing clouds.8 mph78%29.94 "Hg10 mi
2:51 am72 °FPassing clouds.12 mph78%29.92 "Hg10 mi
1:51 am72 °FPassing clouds.8 mph78%29.92 "Hg10 mi
12:51 am73 °FPartly cloudy.10 mph71%29.92 "Hg10 mi
11:51 pm
Thu, Apr 27
74 °FPassing clouds.13 mph71%29.90 "Hg10 mi
10:51 pm74 °FMostly cloudy.10 mph71%29.90 "Hg10 mi
9:51 pm74 °FPassing clouds.9 mph69%29.89 "Hg10 mi
8:51 pm74 °FMostly cloudy.6 mph67%29.87 "Hg10 mi
7:51 pm75 °FOvercast.8 mph60%29.86 "Hg10 mi
6:51 pm76 °FOvercast.9 mph56%29.86 "Hg10 mi
5:51 pm78 °FMore clouds than sun.12 mph52%29.86 "Hg10 mi
4:51 pm79 °FBroken clouds.14 mph45%29.84 "Hg10 mi
3:51 pm82 °FPartly sunny.13 mph43%29.84 "Hg10 mi
2:51 pm81 °FPartly sunny.12 mph44%29.86 "Hg10 mi
1:51 pm80 °FPartly sunny.13 mph45%29.86 "Hg10 mi
12:51 pm80 °FPartly sunny.13 mph47%29.86 "Hg10 mi
11:51 am78 °FPartly sunny.14 mph56%29.88 "Hg10 mi
10:51 am75 °FPartly sunny.12 mph64%29.90 "Hg10 mi
Weather by CustomWeather, © 2017

See weather overviewHow to use our weather pages